Previsão horária em Cayo de Willy

Hoje, 27 Julho, Terça-feira

Tempo Temperatura Precipitação Vento Pressão Humidade
00:00 +27°C° 0.1 mm 2 m/s 762 mmHg 95%
01:00 +27°C° 0.1 mm 2 m/s 762 mmHg 95%
02:00 +27°C° 0.1 mm 2 m/s 762 mmHg 95%
03:00 +27°C° 0.1 mm 2 m/s 762 mmHg 94%
04:00 +26°C° 0.1 mm 2 m/s 762 mmHg 94%
05:00 +27°C° 0 mm 2 m/s 762 mmHg 91%
06:00 +27°C° 0 mm 2 m/s 762 mmHg 89%
07:00 +28°C° 0 mm 2 m/s 763 mmHg 87%
08:00 +29°C° 0 mm 2 m/s 763 mmHg 78%
09:00 +31°C° 0 mm 2 m/s 763 mmHg 69%
10:00 +33°C° 0 mm 3 m/s 763 mmHg 60%
11:00 +33°C° 0.1 mm 3 m/s 763 mmHg 61%
12:00 +33°C° 0.1 mm 3 m/s 762 mmHg 62%
13:00 +34°C° 0.1 mm 4 m/s 762 mmHg 64%
14:00 +33°C° 0 mm 4 m/s 762 mmHg 65%
15:00 +33°C° 0 mm 4 m/s 761 mmHg 66%
16:00 +32°C° 0 mm 4 m/s 761 mmHg 67%
17:00 +30°C° 0 mm 3 m/s 761 mmHg 74%
18:00 +29°C° 0 mm 3 m/s 762 mmHg 80%
19:00 +28°C° 0 mm 3 m/s 762 mmHg 87%
20:00 +27°C° 0.1 mm 3 m/s 762 mmHg 88%
21:00 +27°C° 0.1 mm 2 m/s 763 mmHg 90%
22:00 +27°C° 0.1 mm 2 m/s 763 mmHg 91%
23:00 +27°C° 0.2 mm 2 m/s 762 mmHg 91%

Amanhã, 28 Julho, Quarta-feira

Tempo Temperatura Precipitação Vento Pressão Humidade
00:00 +26°C° 0.2 mm 2 m/s 762 mmHg 91%
01:00 +26°C° 0.2 mm 2 m/s 762 mmHg 92%
02:00 +26°C° 0.3 mm 2 m/s 761 mmHg 92%
03:00 +26°C° 0.3 mm 2 m/s 761 mmHg 92%
04:00 +25°C° 0.3 mm 2 m/s 761 mmHg 93%
05:00 +26°C° 0.3 mm 2 m/s 761 mmHg 91%
06:00 +27°C° 0.3 mm 2 m/s 762 mmHg 89%
07:00 +27°C° 0.3 mm 2 m/s 762 mmHg 87%
08:00 +28°C° 0.5 mm 2 m/s 762 mmHg 82%
09:00 +29°C° 0.5 mm 3 m/s 762 mmHg 76%
10:00 +30°C° 0.5 mm 3 m/s 762 mmHg 71%
11:00 +31°C° 0.5 mm 3 m/s 762 mmHg 66%
12:00 +33°C° 0.5 mm 4 m/s 761 mmHg 62%
13:00 +34°C° 0.5 mm 4 m/s 761 mmHg 57%
14:00 +33°C° 0.2 mm 4 m/s 761 mmHg 62%
15:00 +32°C° 0.2 mm 4 m/s 761 mmHg 68%
16:00 +30°C° 0.2 mm 3 m/s 760 mmHg 73%
17:00 +29°C° 0.5 mm 3 m/s 761 mmHg 78%
18:00 +28°C° 0.5 mm 3 m/s 761 mmHg 84%
19:00 +26°C° 0.5 mm 3 m/s 761 mmHg 90%
20:00 +26°C° 0.3 mm 2 m/s 762 mmHg 90%
21:00 +26°C° 0.3 mm 2 m/s 762 mmHg 91%
22:00 +26°C° 0.3 mm 2 m/s 762 mmHg 91%
23:00 +25°C° 0.7 mm 2 m/s 762 mmHg 92%

Depois de amanhã, 29 Julho, Quinta-feira

Tempo Temperatura Precipitação Vento Pressão Humidade
00:00 +25°C° 0.7 mm 2 m/s 762 mmHg 92%
01:00 +25°C° 0.7 mm 2 m/s 761 mmHg 92%
02:00 +25°C° 0.6 mm 2 m/s 761 mmHg 92%
03:00 +25°C° 0.6 mm 1 m/s 761 mmHg 93%
04:00 +25°C° 0.6 mm 1 m/s 761 mmHg 93%
05:00 +25°C° 0.1 mm 1 m/s 761 mmHg 92%
06:00 +26°C° 0.1 mm 1 m/s 762 mmHg 90%
07:00 +27°C° 0.1 mm 1 m/s 762 mmHg 89%
08:00 +28°C° 0.1 mm 1 m/s 762 mmHg 80%
09:00 +30°C° 0.1 mm 2 m/s 762 mmHg 71%
10:00 +32°C° 0.1 mm 2 m/s 762 mmHg 62%
11:00 +31°C° 0.7 mm 2 m/s 762 mmHg 66%
12:00 +31°C° 0.7 mm 2 m/s 762 mmHg 69%
13:00 +31°C° 0.7 mm 2 m/s 762 mmHg 73%
14:00 +30°C° 0.7 mm 2 m/s 761 mmHg 75%
15:00 +30°C° 0.7 mm 2 m/s 761 mmHg 77%
16:00 +29°C° 0.7 mm 2 m/s 761 mmHg 80%
17:00 +28°C° 0.5 mm 2 m/s 762 mmHg 83%
18:00 +27°C° 0.5 mm 2 m/s 762 mmHg 86%
19:00 +27°C° 0.5 mm 2 m/s 763 mmHg 89%
20:00 +26°C° 0 mm 2 m/s 763 mmHg 90%
21:00 +26°C° 0 mm 2 m/s 763 mmHg 92%
22:00 +26°C° 0 mm 2 m/s 764 mmHg 93%
23:00 +26°C° 0 mm 2 m/s 763 mmHg 94%

30 Julho, Sexta-feira

Tempo Temperatura Precipitação Vento Pressão Humidade
00:00 +25°C° 0 mm 1 m/s 763 mmHg 94%
01:00 +25°C° 0 mm 1 m/s 763 mmHg 95%
02:00 +25°C° 0 mm 1 m/s 763 mmHg 94%
03:00 +25°C° 0 mm 1 m/s 763 mmHg 94%
04:00 +25°C° 0 mm 1 m/s 763 mmHg 94%
05:00 +26°C° 0 mm 1 m/s 763 mmHg 92%
06:00 +27°C° 0 mm 1 m/s 763 mmHg 91%
07:00 +27°C° 0 mm 1 m/s 763 mmHg 89%
08:00 +29°C° 0 mm 1 m/s 763 mmHg 79%
09:00 +31°C° 0 mm 2 m/s 763 mmHg 68%
10:00 +34°C° 0 mm 3 m/s 763 mmHg 58%
11:00 +34°C° 0 mm 3 m/s 763 mmHg 57%
12:00 +35°C° 0 mm 3 m/s 762 mmHg 55%
13:00 +35°C° 0 mm 4 m/s 762 mmHg 54%
14:00 +34°C° 0 mm 4 m/s 762 mmHg 59%
15:00 +33°C° 0 mm 4 m/s 762 mmHg 64%
16:00 +33°C° 0 mm 4 m/s 762 mmHg 68%
17:00 +30°C° 0.4 mm 3 m/s 762 mmHg 76%
18:00 +29°C° 0.4 mm 3 m/s 763 mmHg 83%
19:00 +28°C° 0.4 mm 2 m/s 764 mmHg 91%
20:00 +27°C° 0 mm 2 m/s 764 mmHg 91%
21:00 +27°C° 0 mm 2 m/s 764 mmHg 92%
22:00 +27°C° 0 mm 2 m/s 764 mmHg 92%
23:00 +27°C° 0.3 mm 2 m/s 764 mmHg 92%

31 Julho, Sábado

Tempo Temperatura Precipitação Vento Pressão Humidade
00:00 +27°C° 0.3 mm 2 m/s 764 mmHg 92%
01:00 +27°C° 0.3 mm 2 m/s 763 mmHg 92%
02:00 +27°C° 0.5 mm 2 m/s 763 mmHg 92%
03:00 +27°C° 0.5 mm 2 m/s 763 mmHg 93%
04:00 +27°C° 0.5 mm 2 m/s 763 mmHg 93%
05:00 +27°C° 0.1 mm 2 m/s 763 mmHg 91%
06:00 +28°C° 0.1 mm 2 m/s 764 mmHg 90%
07:00 +28°C° 0.1 mm 2 m/s 764 mmHg 88%
08:00 +29°C° 0.1 mm 2 m/s 764 mmHg 81%
09:00 +31°C° 0.1 mm 3 m/s 764 mmHg 73%
10:00 +33°C° 0.1 mm 3 m/s 764 mmHg 66%
11:00 +33°C° 0 mm 3 m/s 764 mmHg 64%
12:00 +34°C° 0 mm 4 m/s 763 mmHg 63%
13:00 +34°C° 0 mm 4 m/s 763 mmHg 61%
14:00 +33°C° 0 mm 4 m/s 763 mmHg 66%
15:00 +32°C° 0 mm 4 m/s 763 mmHg 70%
16:00 +32°C° 0 mm 4 m/s 763 mmHg 75%
17:00 +30°C° 0.1 mm 4 m/s 763 mmHg 80%
18:00 +29°C° 0.1 mm 3 m/s 763 mmHg 84%
19:00 +28°C° 0.1 mm 3 m/s 764 mmHg 89%
20:00 +28°C° 0.1 mm 3 m/s 764 mmHg 90%
21:00 +28°C° 0.1 mm 3 m/s 764 mmHg 90%
22:00 +27°C° 0.1 mm 3 m/s 764 mmHg 91%
23:00 +27°C° 0.4 mm 3 m/s 764 mmHg 91%

1 Agosto, Domingo

Tempo Temperatura Precipitação Vento Pressão Humidade
00:00 +27°C° 0.4 mm 3 m/s 764 mmHg 92%
01:00 +27°C° 0.4 mm 2 m/s 763 mmHg 92%
02:00 +27°C° 0.1 mm 2 m/s 763 mmHg 93%
03:00 +27°C° 0.1 mm 2 m/s 763 mmHg 93%
04:00 +27°C° 0.1 mm 2 m/s 763 mmHg 93%
05:00 +27°C° 0.1 mm 2 m/s 764 mmHg 91%
06:00 +28°C° 0.1 mm 2 m/s 764 mmHg 89%
07:00 +28°C° 0.1 mm 2 m/s 764 mmHg 87%
08:00 +30°C° 0.1 mm 2 m/s 764 mmHg 77%
09:00 +31°C° 0.1 mm 2 m/s 764 mmHg 68%
10:00 +34°C° 0.1 mm 3 m/s 764 mmHg 59%
11:00 +34°C° 0 mm 3 m/s 764 mmHg 58%
12:00 +35°C° 0 mm 3 m/s 763 mmHg 57%
13:00 +35°C° 0 mm 4 m/s 763 mmHg 56%
14:00 +34°C° 0 mm 4 m/s 763 mmHg 60%
15:00 +33°C° 0 mm 4 m/s 763 mmHg 64%
16:00 +33°C° 0 mm 4 m/s 762 mmHg 68%
17:00 +30°C° 0 mm 4 m/s 763 mmHg 74%
18:00 +29°C° 0 mm 3 m/s 763 mmHg 80%
19:00 +28°C° 0 mm 3 m/s 764 mmHg 86%
20:00 +27°C° 0 mm 2 m/s 764 mmHg 88%
21:00 +27°C° 0 mm 2 m/s 764 mmHg 90%
22:00 +27°C° 0 mm 2 m/s 765 mmHg 91%
23:00 +26°C° 0.3 mm 2 m/s 764 mmHg 92%
Mostrar mais

Necessitamos do seu Consentimento

A Meteoprog e os seus Fornecedores de Serviços podem armazenar e aceder a dados pessoais como cookies, identificadores do dispositivo ou outras tecnologias semelhantes existentes no seu dispositivo e processar estes dados para personalizar conteúdos e anúncios, assim como funcionalidades nas redes sociais e análise de tráfego.

  • Armazenar e/ou aceder a informações no seu dispositivo

    Os cookies, identificadores do dispositivo ou outras informações podem ser armazenados ou acedidos no seu dispositivo, para os fins acima indicados.

  • Anúncios e conteúdos personalizados, medição de anúncios e conteúdos, dados sobre o público-alvo e desenvolvimento de produtos

    Os anúncios e os conteúdos podem ser personalizados com base num perfil. Podem ser adicionados dados adicionais para uma maior personalização dos anúncios e dos conteúdos. A eficácia dos anúncios e dos conteúdos pode ser medida. Podem ser obtidas informações sobre o público que visualizou os anúncios e os conteúdos. Estes dados podem ser usados para desenvolver ou melhorar sistemas, softwares ou a experiência do utilizador.

Ao clicar em "Eu concordo”, permitirá o uso de cookies, identificadores do dispositivo e web beacons mencionados ou outras tecnologias semelhantes. As configurações do navegador do seu dispositivo podem ser alteradas.

Para certos fins, podem ser invocados interesses legítimos ao invés de consentimento. Pode ler mais informação sobre este assunto na nossa Política de Privacidade e Cookies.